OK2ARM-12 Weather Reports


Display with metric or nautical units.
time (UTC)temp
F
wind
direction
speed
MPH
gust
MPH
rain 1hr
in
rain 24hr
in
rain mn
in
humidity
%
barometer
mb
20260904050156 60 0.0 0.0 0.00 0.00 0.00 76 1019.5
20260904043933 60 0.0 0.0 0.00 0.00 0.00 76 1019.3
20260904041709 60 0.0 0.0 0.00 0.00 0.00 76 1019.2
20260904040710 59 0.0 0.0 0.00 0.00 0.00 76 1019.3
20260904034446 59 0.0 0.0 0.00 0.00 0.00 75 1019.5
20260904032222 60 0.0 0.0 0.00 0.00 0.00 74 1019.6
20260904031222 60 0.0 0.0 0.00 0.00 0.00 74 1019.7
20260904030222 60 0.0 0.0 0.00 0.00 0.00 73 1019.8
20260904025222 60 0.0 0.0 0.00 0.00 0.00 73 1019.9
20260904024222 60 0.0 0.0 0.00 0.00 0.00 73 1019.8
20260904023222 61 0.0 0.0 0.00 0.00 0.00 72 1019.7
20260904015735 61 0.0 0.0 0.00 0.00 0.00 72 1019.4
20260904014735 61 0.0 0.0 0.00 0.00 0.00 72 1019.5
20260904013735 60 0.0 0.0 0.00 0.00 0.00 72 1019.5
20260904012735 61 0.0 0.0 0.00 0.00 0.00 72 1019.6
20260904011735 60 0.0 0.0 0.00 0.00 0.00 73 1019.6
20260904010735 60 0.0 0.0 0.00 0.00 0.00 73 1019.7
20260904005735 60 0.0 0.0 0.00 0.00 0.00 73 1019.8
20260904003515 60 0.0 0.0 0.00 0.00 0.00 72 1019.8
20260904002511 61 0.0 0.0 0.00 0.00 0.00 72 1019.9
20260904001511 60 0.0 0.0 0.00 0.00 0.00 72 1020.0
20260904000511 60 0.0 0.0 0.00 0.00 0.00 72 1020.1
20260903235511 60 0.0 0.0 0.00 0.00 0.00 72 1020.3
20260903234511 60 0.0 0.0 0.00 0.00 0.00 73 1020.2
20260903233511 60 0.0 0.0 0.00 0.00 0.00 74 1020.1
20260903232511 60 0.0 0.0 0.00 0.00 0.00 74 1020.2
20260903231511 59 0.0 0.0 0.00 0.00 0.00 74 1020.3
20260903230511 59 0.0 0.0 0.00 0.00 0.00 74 1020.2
20260903225511 60 0.0 0.0 0.00 0.00 0.00 73 1020.3
20260903223246 60 0.0 0.0 0.00 0.00 0.00 72 1020.5
20260903222247 60 0.0 0.0 0.00 0.00 0.00 71 1020.6
20260903221247 60 0.0 0.0 0.00 0.00 0.00 71 1020.5
20260903220247 60 0.0 0.0 0.00 0.00 0.00 72 1020.5
20260903215247 60 0.0 0.0 0.00 0.00 0.00 71 1020.6
20260903214247 60 0.0 0.0 0.00 0.00 0.00 71 1020.7
20260903212023 60 0.0 0.0 0.00 0.00 0.00 70 1020.7
20260903211023 61 0.0 0.0 0.00 0.00 0.00 69 1020.8
20260903204759 61 0.0 0.0 0.00 0.00 0.00 67 1021.0
20260903203759 62 0.0 0.0 0.00 0.00 0.00 66 1021.0
20260903202759 62 0.0 0.0 0.00 0.00 0.00 66 1020.9
20260903201759 62 0.0 0.0 0.00 0.00 0.00 64 1021.0
20260903200800 62 0.0 0.0 0.00 0.00 0.00 63 1021.0
20260903195759 62 0.0 0.0 0.00 0.00 0.00 62 1021.2
20260903193535 63 0.0 0.0 0.00 0.00 0.00 60 1021.0
20260903192534 64 0.0 0.0 0.00 0.00 0.00 58 1020.7
20260903191535 64 0.0 0.0 0.00 0.00 0.00 56 1020.7
20260903190535 64 0.0 0.0 0.00 0.00 0.00 55 1020.5
20260903185535 65 0.0 0.0 0.00 0.00 0.00 53 1020.5
20260903184535 65 0.0 0.0 0.00 0.00 0.00 52 1020.4
20260903183535 65 0.0 0.0 0.00 0.00 0.00 52 1020.2
20260903182535 65 0.0 0.0 0.00 0.00 0.00 51 1020.1
20260903181535 65 0.0 0.0 0.00 0.00 0.00 51 1020.1
20260903180535 65 0.0 0.0 0.00 0.00 0.00 50 1020.0
20260903175535 65 0.0 0.0 0.00 0.00 0.00 49 1019.9
20260903174535 65 0.0 0.0 0.00 0.00 0.00 49 1020.1
20260903173534 66 0.0 0.0 0.00 0.00 0.00 48 1020.0
20260903172535 66 0.0 0.0 0.00 0.00 0.00 48 1019.7
20260903171535 66 0.0 0.0 0.00 0.00 0.00 47 1019.7
20260903170535 66 0.0 0.0 0.00 0.00 0.00 47 1019.8
20260903165536 66 0.0 0.0 0.00 0.00 0.00 46 1020.0
20260903164535 67 0.0 0.0 0.00 0.00 0.00 46 1019.9
20260903163535 67 0.0 0.0 0.00 0.00 0.00 46 1019.9
20260903162535 67 0.0 0.0 0.00 0.00 0.00 45 1019.8
20260903160311 68 0.0 0.0 0.00 0.00 0.00 44 1019.8
20260903155311 68 0.0 0.0 0.00 0.00 0.00 43 1020.0
20260903154311 68 0.0 0.0 0.00 0.00 0.00 42 1020.1
20260903153311 68 0.0 0.0 0.00 0.00 0.00 42 1020.0
20260903151047 69 0.0 0.0 0.00 0.00 0.00 41 1020.0
20260903150047 69 0.0 0.0 0.00 0.00 0.00 40 1020.0
20260903145047 69 0.0 0.0 0.00 0.00 0.00 39 1019.8
20260903144047 69 0.0 0.0 0.00 0.00 0.00 39 1019.7
20260903143049 69 0.0 0.0 0.00 0.00 0.00 38 1020.0
20260903142047 70 0.0 0.0 0.00 0.00 0.00 36 1019.9
20260903135823 73 0.0 0.0 0.00 0.00 0.00 42 1020.2
20260903134823 69 0.0 0.0 0.00 0.00 0.00 44 1020.1
20260903133823 69 0.0 0.0 0.00 0.00 0.00 44 1020.1
20260903132823 68 0.0 0.0 0.00 0.00 0.00 43 1020.1
20260903131823 69 0.0 0.0 0.00 0.00 0.00 44 1020.1
20260903130823 68 0.0 0.0 0.00 0.00 0.00 43 1020.1
20260903125823 68 0.0 0.0 0.00 0.00 0.00 42 1020.1
20260903124823 69 0.0 0.0 0.00 0.00 0.00 42 1020.1
20260903123823 69 0.0 0.0 0.00 0.00 0.00 44 1020.2
20260903122823 68 0.0 0.0 0.00 0.00 0.00 43 1020.2
20260903121559 69 0.0 0.0 0.00 0.00 0.00 44 1020.3
20260903120555 68 0.0 0.0 0.00 0.00 0.00 43 1020.4
20260903115555 69 0.0 0.0 0.00 0.00 0.00 42 1020.6
20260903114555 69 0.0 0.0 0.00 0.00 0.00 43 1020.8
20260903113555 68 0.0 0.0 0.00 0.00 0.00 44 1021.0
20260903112555 68 0.0 0.0 0.00 0.00 0.00 44 1021.1
20260903111555 70 0.0 0.0 0.00 0.00 0.00 44 1021.1
20260903105331 70 0.0 0.0 0.00 0.00 0.00 44 1021.0
20260903104332 69 0.0 0.0 0.00 0.00 0.00 46 1021.1
20260903103331 69 0.0 0.0 0.00 0.00 0.00 46 1021.1
20260903102332 68 0.0 0.0 0.00 0.00 0.00 45 1021.0
20260903101331 68 0.0 0.0 0.00 0.00 0.00 45 1021.1
20260903093845 69 0.0 0.0 0.00 0.00 0.00 49 1021.4
20260903092844 68 0.0 0.0 0.00 0.00 0.00 47 1021.4
20260903091844 66 0.0 0.0 0.00 0.00 0.00 50 1021.4
20260903090844 67 0.0 0.0 0.00 0.00 0.00 50 1021.6
20260903085844 67 0.0 0.0 0.00 0.00 0.00 52 1021.6
20260903084844 66 0.0 0.0 0.00 0.00 0.00 51 1021.6
20260903082621 65 0.0 0.0 0.00 0.00 0.00 55 1021.7
20260903080357 64 0.0 0.0 0.00 0.00 0.00 57 1021.7
20260903075357 64 0.0 0.0 0.00 0.00 0.00 60 1021.6
20260903074357 63 0.0 0.0 0.00 0.00 0.00 60 1021.5
20260903073357 63 0.0 0.0 0.00 0.00 0.00 63 1021.6
20260903072357 62 0.0 0.0 0.00 0.00 0.00 64 1021.6
20260903071357 62 0.0 0.0 0.00 0.00 0.00 64 1021.7
20260903070357 61 0.0 0.0 0.00 0.00 0.00 66 1021.6
20260903065357 61 0.0 0.0 0.00 0.00 0.00 67 1021.7
20260903061910 60 0.0 0.0 0.00 0.00 0.00 69 1021.5
20260903060910 59 0.0 0.0 0.00 0.00 0.00 68 1021.5
20260903055910 59 0.0 0.0 0.00 0.00 0.00 68 1021.6
20260903054909 59 0.0 0.0 0.00 0.00 0.00 67 1021.6
20260903052646 59 0.0 0.0 0.00 0.00 0.00 67 1021.4
20260903051646 59 0.0 0.0 0.00 0.00 0.00 67 1021.4